When you browse on this site, cookies collect data to enhance your experience and personalize the content and advertising you see.
Visit our Privacy Policy to learn more. By continuing to use the site, you agree to this use of cookies and data.
  • In Latvia
  • List of Countries
  • For 7 days
  • Water Temperature
  • Satellite Maps
  • Weather Map
  • Weather Widgets
  • user-avatar
    Login

    Hourly Weather Fargo

    Today, 24 July, Wednesday

    Time Temperature Precipitation Wind Pressure Humidity
    00:00 +20°C° 0 mm 1 mps 741 mmHg 83%
    01:00 +20°C° 0 mm 1 mps 741 mmHg 85%
    02:00 +18°C° 0 mm 2 mps 741 mmHg 87%
    03:00 +17°C° 0 mm 2 mps 740 mmHg 89%
    04:00 +17°C° 0 mm 2 mps 740 mmHg 90%
    05:00 +17°C° 0 mm 2 mps 740 mmHg 90%
    06:00 +17°C° 0 mm 2 mps 740 mmHg 91%
    07:00 +19°C° 0 mm 3 mps 740 mmHg 86%
    08:00 +21°C° 0 mm 3 mps 740 mmHg 80%
    09:00 +24°C° 0 mm 3 mps 740 mmHg 75%
    10:00 +25°C° 0 mm 4 mps 740 mmHg 70%
    11:00 +26°C° 0 mm 5 mps 740 mmHg 66%
    12:00 +27°C° 0 mm 5 mps 739 mmHg 62%
    13:00 +28°C° 0 mm 6 mps 739 mmHg 62%
    14:00 +28°C° 0 mm 6 mps 738 mmHg 62%
    15:00 +28°C° 0 mm 6 mps 737 mmHg 62%
    16:00 +28°C° 0 mm 6 mps 737 mmHg 66%
    17:00 +27°C° 0 mm 5 mps 737 mmHg 71%
    18:00 +27°C° 0 mm 5 mps 736 mmHg 75%
    19:00 +25°C° 0 mm 5 mps 736 mmHg 78%
    20:00 +23°C° 0 mm 5 mps 736 mmHg 81%
    21:00 +22°C° 0 mm 5 mps 736 mmHg 85%
    22:00 +22°C° 0 mm 6 mps 736 mmHg 84%
    23:00 +22°C° 0 mm 6 mps 735 mmHg 83%

    Tomorrow, 25 July, Thursday

    Time Temperature Precipitation Wind Pressure Humidity
    00:00 +22°C° 0 mm 6 mps 735 mmHg 83%
    01:00 +21°C° 0.2 mm 6 mps 735 mmHg 85%
    02:00 +20°C° 0.2 mm 6 mps 734 mmHg 87%
    03:00 +20°C° 0.2 mm 6 mps 734 mmHg 89%
    04:00 +20°C° 0 mm 6 mps 734 mmHg 90%
    05:00 +20°C° 0 mm 5 mps 734 mmHg 90%
    06:00 +20°C° 0 mm 5 mps 733 mmHg 90%
    07:00 +21°C° 0.1 mm 6 mps 733 mmHg 87%
    08:00 +22°C° 0.1 mm 6 mps 733 mmHg 85%
    09:00 +23°C° 0.1 mm 7 mps 733 mmHg 82%
    10:00 +26°C° 0.3 mm 6 mps 733 mmHg 79%
    11:00 +27°C° 0.3 mm 6 mps 733 mmHg 75%
    12:00 +29°C° 0.3 mm 5 mps 733 mmHg 71%
    13:00 +29°C° 0 mm 5 mps 733 mmHg 71%
    14:00 +30°C° 0 mm 4 mps 733 mmHg 70%
    15:00 +30°C° 0 mm 4 mps 733 mmHg 69%
    16:00 +30°C° 0 mm 4 mps 733 mmHg 69%
    17:00 +30°C° 0 mm 3 mps 733 mmHg 70%
    18:00 +29°C° 0 mm 3 mps 733 mmHg 70%
    19:00 +27°C° 0 mm 2 mps 733 mmHg 70%
    20:00 +25°C° 0 mm 2 mps 733 mmHg 70%
    21:00 +23°C° 0 mm 1 mps 733 mmHg 70%
    22:00 +23°C° 0 mm 2 mps 733 mmHg 73%
    23:00 +21°C° 0 mm 2 mps 733 mmHg 75%

    Day after tomorrow, 26 July, Friday

    Time Temperature Precipitation Wind Pressure Humidity
    00:00 +20°C° 0 mm 3 mps 733 mmHg 77%
    01:00 +20°C° 0 mm 3 mps 733 mmHg 83%
    02:00 +20°C° 0 mm 3 mps 733 mmHg 90%
    03:00 +20°C° 0 mm 3 mps 733 mmHg 97%
    04:00 +20°C° 0 mm 3 mps 733 mmHg 96%
    05:00 +19°C° 0 mm 3 mps 733 mmHg 95%
    06:00 +19°C° 0 mm 2 mps 734 mmHg 94%
    07:00 +21°C° 0 mm 2 mps 734 mmHg 83%
    08:00 +24°C° 0 mm 2 mps 734 mmHg 73%
    09:00 +26°C° 0 mm 2 mps 734 mmHg 63%
    10:00 +27°C° 0 mm 2 mps 734 mmHg 57%
    11:00 +28°C° 0 mm 3 mps 734 mmHg 52%
    12:00 +30°C° 0 mm 3 mps 734 mmHg 46%
    13:00 +30°C° 0 mm 3 mps 734 mmHg 45%
    14:00 +32°C° 0 mm 4 mps 734 mmHg 44%
    15:00 +32°C° 0 mm 4 mps 734 mmHg 44%
    16:00 +32°C° 0 mm 4 mps 734 mmHg 48%
    17:00 +31°C° 0 mm 3 mps 734 mmHg 52%
    18:00 +30°C° 0 mm 3 mps 734 mmHg 56%
    19:00 +28°C° 0 mm 2 mps 734 mmHg 59%
    20:00 +26°C° 0 mm 2 mps 734 mmHg 62%
    21:00 +24°C° 0 mm 1 mps 734 mmHg 66%
    22:00 +23°C° 0 mm 1 mps 734 mmHg 68%
    23:00 +22°C° 0 mm 1 mps 734 mmHg 70%

    27 July, Saturday

    Time Temperature Precipitation Wind Pressure Humidity
    00:00 +21°C° 0 mm 1 mps 734 mmHg 72%
    01:00 +20°C° 0 mm 1 mps 734 mmHg 73%
    02:00 +19°C° 0 mm 2 mps 735 mmHg 75%
    03:00 +18°C° 0 mm 2 mps 735 mmHg 76%
    04:00 +18°C° 0 mm 2 mps 735 mmHg 78%
    05:00 +18°C° 0 mm 2 mps 735 mmHg 81%
    06:00 +17°C° 0 mm 2 mps 735 mmHg 83%
    07:00 +20°C° 0 mm 2 mps 735 mmHg 77%
    08:00 +23°C° 0 mm 2 mps 735 mmHg 71%
    09:00 +26°C° 0 mm 2 mps 736 mmHg 65%
    10:00 +27°C° 0 mm 3 mps 736 mmHg 59%
    11:00 +28°C° 0 mm 3 mps 736 mmHg 53%
    12:00 +29°C° 0 mm 3 mps 736 mmHg 48%
    13:00 +30°C° 0 mm 3 mps 736 mmHg 46%
    14:00 +30°C° 0 mm 2 mps 735 mmHg 45%
    15:00 +31°C° 0 mm 2 mps 735 mmHg 43%
    16:00 +31°C° 0 mm 2 mps 735 mmHg 47%
    17:00 +31°C° 0 mm 1 mps 735 mmHg 50%
    18:00 +30°C° 0 mm 1 mps 735 mmHg 54%
    19:00 +28°C° 0 mm 2 mps 735 mmHg 58%
    20:00 +26°C° 0 mm 3 mps 734 mmHg 62%
    21:00 +24°C° 0 mm 3 mps 734 mmHg 66%
    22:00 +22°C° 0 mm 4 mps 734 mmHg 67%
    23:00 +22°C° 0 mm 5 mps 734 mmHg 68%

    28 July, Sunday

    Time Temperature Precipitation Wind Pressure Humidity
    00:00 +22°C° 0 mm 5 mps 734 mmHg 69%
    01:00 +21°C° 0 mm 5 mps 733 mmHg 73%
    02:00 +21°C° 0 mm 4 mps 733 mmHg 77%
    03:00 +20°C° 0 mm 4 mps 733 mmHg 81%
    04:00 +20°C° 0 mm 4 mps 732 mmHg 85%
    05:00 +20°C° 0 mm 3 mps 732 mmHg 89%
    06:00 +20°C° 0 mm 3 mps 732 mmHg 94%
    07:00 +22°C° 0 mm 3 mps 733 mmHg 87%
    08:00 +25°C° 0 mm 3 mps 733 mmHg 80%
    09:00 +26°C° 0 mm 3 mps 733 mmHg 73%
    10:00 +27°C° 0 mm 4 mps 734 mmHg 68%
    11:00 +27°C° 0 mm 4 mps 734 mmHg 63%
    12:00 +28°C° 0 mm 4 mps 734 mmHg 58%
    13:00 +28°C° 0 mm 4 mps 734 mmHg 56%
    14:00 +29°C° 0 mm 4 mps 734 mmHg 54%
    15:00 +29°C° 0 mm 4 mps 734 mmHg 51%
    16:00 +28°C° 0 mm 4 mps 734 mmHg 55%
    17:00 +27°C° 0 mm 4 mps 734 mmHg 60%
    18:00 +27°C° 0 mm 4 mps 734 mmHg 64%
    19:00 +25°C° 0 mm 4 mps 735 mmHg 68%
    20:00 +22°C° 0 mm 4 mps 735 mmHg 72%
    21:00 +20°C° 0 mm 3 mps 736 mmHg 77%
    22:00 +19°C° 0 mm 3 mps 736 mmHg 81%
    23:00 +18°C° 0 mm 4 mps 737 mmHg 85%

    29 July, Monday

    Time Temperature Precipitation Wind Pressure Humidity
    00:00 +17°C° 0 mm 4 mps 737 mmHg 89%
    01:00 +16°C° 0 mm 3 mps 737 mmHg 91%
    02:00 +14°C° 0 mm 3 mps 737 mmHg 94%
    03:00 +13°C° 0 mm 3 mps 737 mmHg 96%
    04:00 +13°C° 0 mm 3 mps 738 mmHg 95%
    05:00 +14°C° 0 mm 2 mps 738 mmHg 95%
    06:00 +14°C° 0 mm 2 mps 738 mmHg 94%
    07:00 +14°C° 0 mm 3 mps 738 mmHg 87%
    08:00 +17°C° 0 mm 3 mps 738 mmHg 80%
    09:00 +18°C° 0 mm 3 mps 739 mmHg 72%
    10:00 +20°C° 0 mm 2 mps 739 mmHg 68%
    11:00 +21°C° 0 mm 2 mps 738 mmHg 63%
    12:00 +23°C° 0 mm 2 mps 738 mmHg 58%
    13:00 +24°C° 0 mm 2 mps 738 mmHg 57%
    14:00 +25°C° 0 mm 2 mps 737 mmHg 56%
    15:00 +26°C° 0 mm 1 mps 737 mmHg 55%
    16:00 +25°C° 0 mm 1 mps 737 mmHg 56%
    17:00 +25°C° 0 mm 1 mps 736 mmHg 57%
    18:00 +23°C° 0 mm 0 mps 736 mmHg 58%
    19:00 +23°C° 0 mm 1 mps 736 mmHg 64%
    20:00 +22°C° 0 mm 1 mps 736 mmHg 69%
    21:00 +19°C° 0 mm 2 mps 736 mmHg 75%
    22:00 +18°C° 0 mm 2 mps 736 mmHg 77%
    23:00 +18°C° 0 mm 3 mps 735 mmHg 80%
    Show more